Terminal Aerodrome Forecast
Issued by NWS

Home | Current Version | Previous Version | Graphics & Text | Print | Product List | Glossary On
Versions: 1 2 3 4 5 6 7 8 9 10 11 12 13
000
FTUS43 KOAX 171125
TAFCDR
TAF
KCDR 171125Z 1712/1812 23007KT P6SM SKC
     FM171700 32008KT P6SM SCT250
     FM180000 18006KT P6SM SCT120=

USA.gov is the U.S. government's official web portal to all federal, state and local government web resources and services.